www.pogodaiklimat.ru
ПОГОДА в Бичевой
Время
(UTC), дата
21 27.07
00 28.07
03 28.07
06 28.07
09 28.07
12 28.07
15 28.07
18 28.07
21 28.07
00 29.07
03 29.07
06 29.07
09 29.07
12 29.07
15 29.07
18 29.07
21 29.07
00 30.07
03 30.07
06 30.07
09 30.07
12 30.07
15 30.07
18 30.07
21 30.07
00 31.07
03 31.07
06 31.07
09 31.07
12 31.07
15 31.07
18 31.07
21 31.07
00 1.08
03 1.08
06 1.08
09 1.08
12 1.08
15 1.08
18 1.08
21 1.08
00 2.08
03 2.08
06 2.08
09 2.08
12 2.08
15 2.08
18 2.08
21 2.08
00 3.08
03 3.08
06 3.08
09 3.08
12 3.08
15 3.08
Ветер
(напр.,м/с)
Видим. Явления Облачность Т
(С)
Тd
(С)
f
(%)
Тe
(С)
Тes
(С)
Комфортность P
(гПа)
Po
(гПа)
Тmin
(С)
Tmax
(С)
R
(мм)
R24
(мм)
S
(см)
Ю 1 500 м туман ясно +17.5 +17.0 97 +19 +20 1013.2 1001.0 +16.9
С 1 50 км {туман} ясно +25.5 +20.9 76 +32 +44 очень
душно
1014.7 1002.7
СЗ 2 50 км 1/1 600 м
[Cu hum]
+28.9 +20.1 59 +35 +50 очень
душно
1013.1 1001.3
С 1 50 км 1/1 600 м
[Cu hum]
+30.7 +18.4 48 +36 +46 очень
душно
1011.8 1000.0
СЗ 1 50 км 8/0
[Ac lent Ci]
+27.2 +20.8 68 +34 +34 очень
душно
1011.9 1000.0 +30.9
ЮВ 1 50 км ясно +21.4 +20.6 95 +27 +27 душно 1013.4 1001.3
штиль 0 50 км ясно +18.9 +18.2 96 +20 +20 1013.6 1001.3
Ю 1 50 км ясно +17.8 +17.2 96 +19 +19 1013.6 1001.3
Ю 1 50 км 1/1 600 м
[Sc]
+19.3 +18.3 94 +23 +24 комфорт 1013.5 1001.4 +17.7
Ю 1 50 км 3/0
[Ci fib]
+26.2 +21.2 74 +33 +43 очень
душно
1014.7 1002.7
З 1 50 км 4/4 1000 м
[Cu med, cong]
+29.2 +21.2 62 +37 +49 очень
душно
1013.1 1001.3
СЗ 3 50 км 5/3 1000 м
[Cu hum Ac cast]
+30.6 +20.2 54 +37 +41 очень
душно
1011.8 1000.0
З 1 50 км 3/3 600 м
[Cu hum]
+29.6 +20.7 59 +37 +38 очень
душно
1011.8 1000.0 +31.0
Ю 1 50 км ясно +22.4 +21.2 93 +29 +29 очень
душно
1012.1 1000.0
Ю 1 50 км ясно +20.9 +20.2 96 +27 +27 душно 1012.2 1000.0
ЮЗ 1 50 км ясно +20.4 +19.6 95 +26 +26 душно 1013.5 1001.3
ЮЗ 1 50 км 3/1 600 м
[Sc Ac cast]
+20.9 +20.1 95 +27 +28 душно 1011.7 999.7 +19.2
Ю 2 50 км ясно +26.5 +21.3 73 +34 +44 очень
душно
1011.9 1000.0
З 2 50 км 3/3 1000 м
[Cu med, cong]
+30.4 +19.1 51 +36 +49 очень
душно
1010.5 998.7
СЗ 2 50 км 4/4 1000 м
[Cu med, cong]
+30.7 +20.6 55 +38 +44 очень
душно
1009.0 997.3
З 1 50 км 3/0
[Ci fib]
+29.5 +20.6 59 +37 +38 очень
душно
1009.1 997.3 +31.4
штиль 0 50 км ясно +22.6 +20.9 90 +30 +30 очень
душно
1009.3 997.3
ЮВ 1 50 км 8/8 600 м
[Sc]
+20.8 +20.0 95 +27 +27 душно 1009.4 997.3
Ю 1 50 км ясно +19.4 +18.7 96 +23 +23 комфорт 1009.5 997.3
ЮЗ 1 50 км 3/1 600 м
[Sc Ac trans]
+19.2 +18.7 97 +22 +23 комфорт 1009.1 997.1 +18.4
Ю 3 50 км 1/1 600 м
[Cu hum]
+25.7 +20.0 71 +32 +39 очень
душно
1010.6 998.7
Ю 2 50 км 3/3 1000 м
[Cu hum]
+28.9 +18.9 55 +34 +47 очень
душно
1009.1 997.3
С 1 50 км 3/3 1000 м
[Cu hum]
+30.4 +19.1 51 +36 +45 очень
душно
1007.7 996.0
штиль 0 50 км 4/1 600 м
[Cu hum Ci fib]
+28.6 +20.6 62 +35 +36 очень
душно
1007.8 996.0 +30.9
ЮЗ 1 50 км 3/0
[Ci fib]
+22.4 +21.0 92 +29 +29 очень
душно
1008.0 996.0
ЮЗ 1 50 км ясно +20.3 +18.6 90 +25 +25 комфорт 1008.1 996.0
Ю 2 50 км ясно +20.6 +18.2 86 +25 +25 комфорт 1008.1 996.0
Ю 2 50 км 10/4 600 м
[Sc Ac trans]
+21.1 +18.5 85 +25 +26 комфорт 1007.1 995.2 +19.5
Ю 2 50 км в посл. час ливневой дождь 10/10 600 м
[Cb cap]
+21.3 +20.0 92 +26 +26 душно 1006.9 995.0
Ю 2 50 км в посл. час ливневой дождь 10/10 600 м
[Cb cap]
+23.5 +21.2 87 +30 +30 очень
душно
1008.0 996.0
З 3 10 км слаб. ливневой дождь 10/10 600 м
[Cb cap]
+21.7 +20.9 95 +28 +28 душно 1006.7 994.7
ЮВ 2 50 км {ливн. дождь} 9/5 600 м
[Cb cap Ac cast]
+24.7 +21.8 84 +32 +32 очень
душно
1006.6 994.7 +25.7 17
Ю 2 50 км {ливн. дождь} 1/0
[Ci ing]
+22.5 +20.5 88 +29 +29 очень
душно
1006.5 994.6
Ю 2 50 км 8/0
[Ac lent]
+21.9 +19.8 88 +28 +28 душно 1008.1 996.0
Ю 2 50 км гроза без осадков 10/10 600 м
[Cb cap]
+21.9 +19.6 87 +27 +27 душно 1008.1 996.0
Ю 2 20 км {гроза, ливн. дождь} 9/8 600 м
[Cb cap Ci sp]
+20.4 +19.6 95 +25 +25 комфорт 1007.1 995.1 +19.2 9
Ю 3 50 км {гроза, ливн. дождь} 10/10 600 м
[Sc]
+25.1 +21.0 78 +32 +32 очень
душно
1006.9 995.1
Ю 2 50 км 7 баллов +27.2 +21.5 71 +35 +40 очень
душно
1007.8 996.0
Ю 3 50 км 6/4 600 м
[Cb cap Ci fib]
+29.2 +21.7 64 +37 +41 очень
душно
1006.4 994.7
СЗ 1 50 км в посл. час гроза 10/10 600 м
[Cb calv]
+25.3 +22.8 86 +33 +33 очень
душно
1007.9 996.0 +29.4
С 1 50 км {гроза} 6/4 600 м
[Sc diur, vesp Ac trans]
+21.5 +19.4 88 +26 +26 душно 1007.4 995.5
С 1 50 км зарница 4/1 600 м
[Cb cap Cs]
+19.9 +19.1 95 +24 +24 комфорт 1009.5 997.3
С 1 50 км 10 баллов +19.6 +18.8 95 +23 +23 комфорт 1008.2 996.0
С 2 50 км в посл. час зёрна 10/10 300 м
[St]
+16.3 +15.7 96 +16 +16 1007.6 995.4 +16.3 0.0
С 2 10 км слаб. дождь 10/8 300 м
[Frnb As op]
+16.4 +15.5 94 +16 +17 1008.0 995.8 +16.1
С 2 20 км в посл. час дождь 10 баллов +18.4 +17.1 92 +20 +20 1008.2 996.0
С 1 10 км слаб. дождь 10 баллов +19.3 +18.1 93 +22 +22 комфорт 1006.9 994.7
СЗ 2 50 км в посл. час дождь 10/0
[Ac As]
+18.5 +17.6 94 +20 +20 1004.6 992.5 +19.6 6
С 4 50 км {дождь} 10/10 600 м
[Sc]
+18.3 +17.5 95 +19 +19 1004.5 992.4
З 3 50 км 10 баллов +18.1 +17.5 96 +18 +18 1005.5 993.3
Местоположение метеостанции Бичевая (Хабаровский край, Россия): широта 47.77 долгота 135.60 высота над уровнем моря 105 м.
В архиве по умолчанию представлена погода в Бичевой за последнюю неделю. Архивные данные за месяц целиком и за предыдущие месяцы, начиная с января 2011 года, Вы можете получить, выбрав интересующий диапазон дат из раскрывающегося списка и нажав кнопку "Найти!".
*Определитесь, кто Вы:
Внимание! Время в таблицах - всемирное. Для получения местного времени необходимо прибавить поправку, которая равна 10 ч.
Смотрите также архив погоды в соседних городах и на ближайших метеорологических станциях:
Партнеры нашего сайта:      
Пояснения к столбцам:
  • Ветер - указаны скорость ветра в м/с - средняя за 10 мин, порывы в срок и между сроками (в фигурных скобках) и направление, откуда дует ветер: С - северный,
  • СВ - северо-восточный, В - восточный, ЮВ - юго-восточный, Ю - южный, ЮЗ - юго-западный, З - западный, СЗ - северо-западный.
  • Видимость - горизонтальная дальность видимости в метрах или километрах. При видимости от 1 до 10 км при отсутствии осадков обычно наблюдается дымка, при ухудшении видимости до 1 км и менее - туман. В сухую погоду видимость может ухудшаться дымом, пылью или мглою.
  • Явления - указаны атмосферные явления, наблюдавшиеся в срок или в последний час перед сроком; фигурными скобками обозначены явления, наблюдавшиеся между сроками (за 1-3 часа до срока); квадратными скобками обозначены град или гололедные отложения с указанием их диаметра в мм.
  • Облачность - указаны через наклонную черту общая и нижняя облачность в баллах и высота нижней границы облаков в метрах; квадратными скобками обозначены формы облаков: Ci - перистые, Cs - перисто-слоистые, Cc - перисто-кучевые, Ac - высококучевые, As - высокослоистые, Sc - слоисто-кучевые, Ns - слоисто-дождевые, Cu - кучевые, Cb - кучево-дождевые. Подробнее классификацию облаков см. в Атласе облаков (PDF).
  • T - Температура воздуха - температура, измеренная на высоте 2 м над землей.
  • Td - Температура точки росы - температура, при понижении до которой содержащийся в воздухе водяной пар достигнет насыщения.
  • f - Относительная влажность воздуха - влажноcть воздуха, измеренная на высоте 2 м над землей.
  • Te - Эффективная температура - температура, которую ощущает одетый по сезону человек в тени. Характеристика душности погоды. При расчете учитывается влияние влажности воздуха и скорости ветра на теплоощущения человека.
  • Tes - Эффективная температура на солнце - температура, которую ощущает человек, с поправкой на солнечный нагрев. Характеристика знойности погоды. Зависит от высоты солнца над горизонтом, облачности и скорости ветра. Ночью, в пасмурную погоду, а также при ветре 12 м/с и более поправка равна нулю.
  • P - Атмосферное давление - приведенное к уровню моря атмосферное давление.
  • Po - Атмосферное давление - измеренное на уровне метеостанции атмосферное давление.
  • Tmin - Минимальная температура - минимум температуры воздуха на высоте 2 м над землей.
  • Tmax - Максимальная температура - максимум температуры воздуха на высоте 2 м над землей.
  • R - Количество осадков - Количество выпавших осадков за период времени, мм. При наведении курсора мыши на число - период времени, за который выпало указанное количество осадков.
  • R24 - Количество осадков - Количество выпавших осадков за 24 часа, мм.
  • S - Снежный покров - Высота снежного покрова, см. При наведении курсора мыши на число - состояние снежного покрова и степень покрытия местности в баллах.